This demonstration page uses our WeatherBlox Daily Observations layout. Learn more.

Hourly Observations for January 25, 2017

Temp ( °F °C ) Dew Point ( °F °C ) Humidity (%) Winds ( mph kmh ) Pressure ( in mb ) Visibility ( mi km ) Precip ( " mm )
12:33 am 00:33 Cloudy 32 0 31 -0.6 96 96 NNW 8 13 29.68 1005 9 14.48406 0 0
12:54 am 00:54 Cloudy 32 0 31 -0.6 96 96 NW 9 15 29.64 1004 10 16.0934 0 0
1:09 am 01:09 Cloudy 33 0.6 31 -0.6 92 92 NW 9 15 29.65 1004 10 16.0934 0 0
1:24 am 01:24 Cloudy 33 0.6 31 -0.6 92 92 NW 9 15 29.65 1004 10 16.0934 0 0
1:54 am 01:54 Cloudy 33 0.6 31 -0.6 92 92 NW 9 15 29.64 1004 10 16.0934 0 0
2:54 am 02:54 Cloudy 32 0 30 -1.1 92 92 NW 13 20 29.66 1004 10 16.0934 0 0
3:54 am 03:54 Cloudy 32 0 29 -1.7 88 88 NW 15 24 29.67 1005 10 16.0934 0 0
4:20 am 04:20 Cloudy 32 0 28 -2 87 87 NW 15 24 29.71 1006 9 14.48406 0 0
4:50 am 04:50 Cloudy with Light Snow 32 0 28 -2 87 87 NW 18 30 29.71 1006 4 6.43736 0 0
4:54 am 04:54 Cloudy with Light Snow 31 -0.6 29 -1.7 92 92 NW 17 28 29.7 1006 4 6.43736 0 0.0254
5:30 am 05:30 Cloudy with Light Snow 30 -1 28 -2 93 93 NW 17 28 29.74 1007 3 4.82802 0 0
5:34 am 05:34 Cloudy with Light Snow 30 -1 28 -2 93 93 NW 16 26 29.74 1007 2.5 4.02335 0 0
5:43 am 05:43 Cloudy with Light Snow 31 -0.6 28 -2.2 89 89 NW 14 22 29.74 1007 3 4.82802 0.01 0.254
5:54 am 05:54 Cloudy with Light Snow 31 -0.6 28 -2.2 89 89 NW 14 22 29.72 1007 2.5 4.02335 0.01 0.254
6:03 am 06:03 Cloudy with Light Snow 30 -1.1 28 -2.2 92 92 NW 14 22 29.77 1008 1.75 2.816345 0.01 0.254
6:54 am 06:54 Cloudy with Light Snow 29 -1.7 25 -3.9 85 85 NW 18 30 29.75 1007 1.75 2.816345 0.01 0.254
7:00 am 07:00 Cloudy with Light Snow 29 -1.7 25 -3.9 85 85 NW 18 30 29.77 1008 3 4.82802 0 0.0254
7:07 am 07:07 Windy with Snow Likely 28 -2 25 -4 86 86 NW 21 33 29.77 1008 4 6.43736 0 0
7:54 am 07:54 Windy with Snow Likely 28 -2.2 24 -4.4 85 85 NW 20 31 29.78 1008 2 3.21868 0 0.0254
8:10 am 08:10 Cloudy with Light Snow 28 -2 25 -4 86 86 NW 18 30 29.8 1009 4 6.43736 0 0
8:54 am 08:54 Windy with Snow Likely 27 -2.8 24 -4.4 89 89 NW 21 33 29.81 1010 2 3.21868 0 0.0254
9:19 am 09:19 Windy with Snow Likely 27 -2.8 23 -5 85 85 NW 23 37 29.85 1011 2 3.21868 0 0.0254
9:22 am 09:22 Windy with Snow Likely 27 -3 23 -5 86 86 NNW 22 35 29.83 1010 0.75 1.207005 0 0
9:44 am 09:44 Cloudy with Snow 27 -2.8 24 -4.4 89 89 NW 18 30 29.85 1011 0.5 0.80467 0 0.0254
9:54 am 09:54 Mostly Cloudy with Scattered Snow Showers 27 -2.8 24 -4.4 89 89 NW 15 24 29.84 1011 0.75 1.207005 0.01 0.254
10:19 am 10:19 Windy with Snow Likely 27 -3 25 -4 93 93 NW 20 31 29.88 1012 1 1.60934 0 0
10:47 am 10:47 Windy with Snow Likely 28 -2.2 24 -4.4 85 85 NW 22 35 29.88 1012 4 6.43736 0 0.0254
10:54 am 10:54 Windy with Snow Likely 28 -2.2 23 -5 81 81 NW 23 37 29.87 1012 4 6.43736 0 0.0254
11:04 am 11:04 Cloudy with Light Snow 28 -2.2 23 -5 81 81 NW 18 30 29.88 1012 4 6.43736 0 0.0254
11:50 am 11:50 Windy with Snow Likely 28 -2 23 -5 80 80 NNW 22 35 29.91 1013 4 6.43736 0 0
11:54 am 11:54 Windy with Snow Likely 29 -1.7 24 -4.4 82 82 NW 20 31 29.88 1012 4 6.43736 0 0.0254
12:08 pm 12:08 Cloudy with Light Snow 28 -2 23 -5 80 80 NNW 18 30 29.91 1013 7 11.26538 0 0
12:15 pm 12:15 Cloudy 28 -2 23 -5 80 80 NNW 24 39 29.91 1013 9 14.48406 0 0
12:54 pm 12:54 Mostly Cloudy 30 -1.1 23 -5 75 75 NW 18 30 29.89 1012 10 16.0934 0 0.0254
1:54 pm 13:54 Cloudy 30 -1.1 23 -5 75 75 NNW 20 31 29.89 1012 10 16.0934 0 0
2:54 pm 14:54 Cloudy 29 -1.7 23 -5 78 78 NNW 21 33 29.92 1013 8 12.87472 0 0
3:54 pm 15:54 Cloudy 29 -1.7 22 -5.6 75 75 NW 20 31 29.95 1014 10 16.0934 0 0
4:54 pm 16:54 Cloudy 27 -2.8 21 -6.1 78 78 NW 15 24 29.98 1015 10 16.0934 0 0
5:54 pm 17:54 Cloudy 27 -2.8 20 -6.7 75 75 NW 12 19 30.01 1016 10 16.0934 0 0
6:54 pm 18:54 Mostly Cloudy 26 -3.3 19 -7.2 75 75 NW 15 24 30.04 1017 10 16.0934 0 0
7:54 pm 19:54 Mostly Cloudy 25 -3.9 19 -7.2 78 78 NW 13 20 30.06 1018 10 16.0934 0 0
8:54 pm 20:54 Cloudy 25 -3.9 18 -7.8 75 75 NW 17 28 30.06 1018 8 12.87472 0 0.0254
9:07 pm 21:07 Cloudy 25 -3.9 18 -7.8 75 75 NW 16 26 30.12 1020 10 16.0934 0 0
9:54 pm 21:54 Cloudy 24 -4.4 19 -7.2 81 81 NW 15 24 30.08 1019 7 11.26538 0 0
10:30 pm 22:30 Cloudy 24 -4.4 17 -8.3 75 75 NNW 15 24 30.12 1020 10 16.0934 0 0
10:54 pm 22:54 Cloudy 24 -4.4 17 -8.3 75 75 NW 15 24 30.09 1019 10 16.0934 0 0
11:49 pm 23:49 Mostly Cloudy 23 -5 16 -9 74 74 NW 13 20 30.15 1021 9 14.48406 0 0
11:54 pm 23:54 Mostly Cloudy with Scattered Snow Showers 23 -5 17 -8.3 78 78 NW 10 17 30.11 1020 7 11.26538 0 0.0254

Powered by AerisWeather